Temperature
13 12 11 11 11 12 12 12 12 12 11 11 11 11 11 12 13 14 14 15 17 18 19 20 20 20 20 19 19 19 18 18 18 17 17 17 17 17 17 17 16 16 15 15
12 12 12 11 10 11 11 11 12 11 11 11 11 11 11 11 12 13 13 14 16 17 18 19 19 19 19 19 19 19 18 18 17 17 17 17 17 17 16 16 16 16 16 15
11 12 12 10 9 9 10 10 10 10 10 10 10 10 10 11 12 13 14 15 15 16 16 17 17 17 17 17 18 18 17 17 17 16 16 16 16 16 16 16 16 15 16 15
10 11 9 9 9 9 10 10 10 10 10 10 9 10 11 12 12 13 14 15 15 15 16 16 16 16 16 16 16 16 16 15 15 15 16 16 16 16 15 15 15 15 15 15
9 9 9 10 10 10 10 10 9 9 9 9 10 11 12 13 13 14 15 15 15 15 15 15 15 15 15 15 15 14 14 14 14 14 14 14 14 15 14 14 14 14 14 14
9 9 9 9 11 11 10 10 9 9 9 9 9 9 11 12 13 14 15 15 15 15 15 15 14 14 14 14 13 13 13 12 12 13 13 13 14 14 13 13 13 13 13 14
8 9 10 10 11 10 10 9 9 9 9 9 9 9 10 12 14 15 15 15 15 15 15 14 14 14 13 13 13 12 12 12 12 12 12 12 12 12 12 12 12 12 12 13
8 8 8 11 10 9 9 9 9 9 10 9 10 11 12 13 15 15 15 15 15 15 15 14 14 14 14 13 13 13 12 12 12 11 11 11 11 11 11 12 12 12 12 12
9 8 10 10 10 10 10 9 10 10 10 10 11 12 13 14 15 15 16 15 15 15 15 15 14 14 14 13 13 13 13 12 12 11 11 11 11 11 11 11 12 12 12 12
9 10 10 11 11 11 10 10 10 11 11 11 11 12 13 14 15 15 16 16 15 15 15 15 15 14 14 14 13 13 13 12 12 12 11 11 11 11 11 11 11 11 11 11
9 10 11 11 11 11 11 11 11 11 11 11 12 13 13 14 15 15 16 16 16 16 15 15 15 15 14 14 13 13 13 12 12 12 11 11 11 11 11 11 11 10 10 11
8 10 10 12 12 11 11 11 11 11 11 12 12 12 13 14 15 15 15 16 16 16 16 15 15 15 15 14 14 13 13 12 12 12 11 11 11 11 11 10 10 10 10 10
12 12 12 12 12 12 11 11 11 11 11 11 12 12 13 14 15 15 15 15 16 16 16 16 15 15 15 14 14 13 13 12 12 12 11 11 11 11 11 10 10 10 10 10
13 12 12 12 12 12 11 11 11 11 11 12 12 12 13 14 15 15 15 16 16 16 16 16 16 16 15 15 14 14 13 12 12 12 11 11 11 11 11 10 10 10 9 9
13 13 12 12 12 12 12 11 11 12 12 12 12 12 13 14 15 15 16 16 16 17 17 16 16 16 16 15 15 14 13 12 12 12 11 11 11 11 11 10 10 9 9 9
13 12 12 12 12 12 12 11 11 11 12 12 12 13 13 14 15 16 16 16 17 17 17 17 17 16 16 16 15 14 13 12 12 12 11 11 11 11 11 10 10 10 10 10
13 12 12 12 12 12 11 11 11 11 11 12 12 13 13 14 16 16 17 17 17 17 17 17 17 17 16 16 15 14 13 13 12 12 11 11 11 11 11 11 10 10 10 10
13 13 12 12 12 11 11 11 11 11 11 11 12 12 13 14 15 16 17 17 17 17 17 17 17 17 16 16 15 15 13 13 12 12 11 11 11 11 11 11 10 10 10 10
13 12 12 12 11 11 11 11 11 11 11 12 12 12 13 13 14 15 16 17 17 17 17 17 17 17 16 16 15 15 14 13 12 12 11 11 11 11 11 11 10 10 10 10
13 12 12 11 11 11 11 11 11 11 11 12 12 12 12 13 13 14 15 16 16 16 17 17 17 17 16 16 15 15 14 13 12 12 11 11 11 11 11 10 10 10 10 10
13 12 12 11 11 11 11 11 11 11 11 11 11 12 12 12 13 14 15 16 16 16 16 17 17 16 16 15 15 14 14 13 12 11 11 11 11 11 11 10 10 10 10 9
13 12 12 11 11 11 11 11 11 11 11 11 11 11 12 12 13 13 14 14 15 16 16 17 17 16 16 15 15 14 13 13 12 11 11 11 11 11 10 10 10 10 9 9
13 12 12 11 11 11 11 11 11 11 11 11 11 11 11 12 12 13 14 14 15 15 16 16 17 17 16 15 15 14 13 12 12 11 11 11 11 11 10 10 10 10 9 9
13 12 12 11 11 11 11 11 11 11 11 11 11 11 11 12 12 12 13 13 14 15 15 16 17 16 16 15 15 14 13 12 12 11 11 11 11 11 10 10 10 10 9 9
12 12 12 11 11 11 11 11 11 11 11 11 11 11 11 11 11 12 12 13 13 14 15 15 16 16 16 15 15 14 13 13 12 11 11 11 11 11 10 10 10 10 9 9
12 12 12 12 12 11 11 11 11 11 11 11 12 12 11 11 11 12 12 12 13 14 14 15 15 15 15 15 15 14 13 13 12 12 11 11 11 10 10 10 10 9 9 9
12 12 12 12 12 11 11 11 11 11 11 11 12 12 11 11 11 12 12 12 13 13 14 14 14 14 14 15 15 14 13 12 12 12 11 11 10 10 10 10 10 9 9 9
Wind_Speed
5 12 14 14 16 16 16 11 8 6 7 14 18 18 18 17 16 15 14 13 10 7 6 6 6 5 3 2 2 4 6 6 5 5 5 6 6 7 7 7 8 7 7 6
5 11 15 17 19 16 12 10 8 7 6 13 16 16 17 18 18 16 14 14 13 13 13 13 12 11 10 9 6 4 4 3 3 3 4 4 5 6 5 6 6 6 7 7
4 2 4 11 12 10 7 9 7 7 8 15 18 21 18 15 16 15 12 11 11 12 12 12 12 12 13 12 12 12 10 8 5 3 3 3 2 0 2 4 4 5 6 7
3 6 6 3 5 6 4 8 11 10 12 15 17 18 11 8 14 14 11 10 9 9 10 10 10 10 10 10 11 11 10 9 9 8 8 7 6 5 3 2 2 4 5 6
4 4 2 3 4 4 3 2 10 12 14 16 18 12 5 12 18 13 7 6 6 7 7 8 9 8 9 9 8 9 8 8 7 7 7 7 7 6 4 3 2 2 3 4
4 4 2 3 7 5 2 0 8 11 13 15 16 11 10 19 20 15 7 5 6 6 7 7 7 7 9 8 8 7 6 6 6 6 6 6 6 5 4 4 4 4 3 2
5 3 1 4 6 4 2 5 9 8 10 11 8 6 14 20 17 11 5 4 6 6 5 4 4 7 8 7 6 4 4 5 6 6 6 6 6 5 5 5 5 6 5 5
3 3 3 4 3 2 3 5 5 7 7 9 11 14 15 15 14 11 4 3 4 4 4 3 3 5 6 5 4 2 4 5 5 6 6 6 7 7 6 6 7 7 6 6
4 4 3 1 3 4 4 4 5 5 9 10 12 12 15 14 13 9 3 1 2 2 3 4 4 2 4 5 3 2 4 4 4 5 6 6 6 6 6 6 5 5 5 5
1 2 4 3 3 4 4 6 8 9 10 9 9 12 14 13 11 9 5 3 1 1 2 4 4 2 2 3 2 4 3 2 1 2 3 4 5 5 5 5 5 5 6 6
2 3 2 4 5 5 6 7 8 8 7 8 9 10 10 10 10 9 6 4 2 1 2 3 3 3 2 3 4 4 2 1 0 0 1 2 3 4 4 4 4 4 4 5
6 6 5 5 6 5 5 6 7 7 7 8 7 8 9 10 8 8 7 5 4 5 5 3 3 4 4 1 4 4 2 2 2 2 2 1 0 1 4 3 5 6 6 5
7 7 7 6 5 4 4 5 6 6 6 7 8 7 8 8 8 9 8 7 6 7 8 6 5 6 6 4 3 4 4 3 2 1 2 2 2 2 2 2 3 4 6 7
8 7 4 3 3 3 3 4 5 6 6 7 7 7 8 8 9 10 10 10 9 8 8 7 6 7 7 5 4 4 4 3 2 1 1 1 1 0 0 0 1 2 4 6
8 8 7 4 1 2 2 3 5 6 7 8 7 8 9 10 10 11 11 10 9 7 7 7 7 8 6 6 6 6 5 3 1 0 1 1 1 2 2 2 2 2 3 5
9 8 7 5 3 2 2 3 4 7 7 7 7 8 9 9 9 9 10 10 10 10 8 7 8 7 6 7 7 6 5 6 4 1 2 2 2 2 2 3 3 3 3 4
11 8 7 4 1 1 2 3 4 5 7 7 8 8 9 9 9 10 11 11 10 10 8 7 7 5 7 8 8 6 5 4 4 3 2 2 2 3 3 3 3 3 3 4
11 10 9 7 4 3 3 4 5 6 6 7 8 8 9 10 10 11 11 11 11 10 9 8 6 4 7 8 7 6 5 4 3 3 3 3 3 3 3 3 3 3 3 3
10 10 9 7 5 4 3 4 5 6 7 6 6 7 8 9 9 10 10 10 10 10 11 12 9 4 7 8 7 6 6 5 4 3 3 4 4 3 4 4 3 3 3 3
10 10 9 6 4 4 4 4 5 6 6 5 6 7 8 9 10 10 9 8 6 7 10 11 4 3 5 7 8 6 6 6 5 4 4 4 4 4 4 4 4 3 3 3
11 10 8 6 5 5 5 4 4 5 6 5 5 7 8 9 9 8 8 7 9 10 10 10 4 1 4 5 7 6 6 6 5 5 5 5 4 4 4 4 4 3 3 3
10 9 8 7 6 5 4 4 4 5 5 5 6 6 7 8 9 8 7 6 8 13 9 5 4 3 6 7 5 6 6 6 5 5 5 5 5 5 4 4 4 4 3 4
9 8 8 8 7 6 4 3 3 3 4 5 5 6 6 7 6 6 8 8 8 13 9 6 7 5 9 7 5 6 6 6 5 5 5 5 5 5 5 5 4 4 4 4
9 8 8 8 6 5 4 5 4 4 4 5 5 6 5 5 6 6 6 11 13 14 8 9 10 4 9 5 5 6 6 6 5 5 5 5 5 5 5 5 5 4 4 5
10 9 8 8 7 6 7 6 4 4 4 4 6 7 5 4 5 7 8 9 12 11 7 8 7 4 6 5 5 6 6 6 6 6 6 6 6 6 6 5 5 5 4 4
9 8 7 8 7 6 6 5 4 4 4 4 5 5 6 6 7 7 7 8 10 10 7 5 3 3 4 4 5 6 6 6 7 6 6 6 7 7 6 6 7 5 5 4
8 6 6 5 5 6 6 5 5 5 5 5 5 5 6 6 7 7 8 7 7 7 6 5 4 3 4 4 4 6 6 6 6 6 6 6 6 6 7 7 6 5 5 5
Wind_Direction
51 86 74 50 28 34 44 46 56 49 24 357 346 341 342 353 360 9 12 21 28 30 22 15 10 4 353 285 214 175 168 180 205 232 241 236 228 223 221 216 214 209 212 218
60 98 76 48 24 22 32 33 40 37 18 345 338 345 353 2 9 14 19 21 26 36 43 45 44 43 43 39 43 92 138 179 217 243 254 253 237 223 219 224 229 219 216 216
10 26 61 34 1 2 19 37 21 20 350 340 347 346 343 353 2 3 10 17 28 39 48 51 51 52 51 45 49 55 54 48 36 29 22 3 352 206 227 236 237 234 227 215
55 48 62 294 277 302 341 54 28 7 352 350 341 323 310 352 357 353 1 16 27 40 51 52 53 54 54 52 55 58 57 53 49 49 44 34 35 28 4 322 257 241 234 224
74 86 107 315 315 310 316 44 20 357 348 346 339 331 325 351 351 341 347 17 33 46 57 56 53 54 56 50 50 52 48 43 39 44 42 33 24 10 359 351 334 290 256 230
57 86 68 310 307 308 205 95 6 350 344 344 350 4 335 330 333 333 346 26 39 43 49 50 46 54 54 43 42 41 40 40 37 39 37 24 7 355 349 347 339 335 334 299
43 65 33 284 309 359 55 307 320 324 327 333 337 294 295 311 322 326 334 43 54 52 47 37 44 55 47 33 19 13 39 46 35 25 22 18 7 3 1 7 16 20 24 20
47 41 284 301 32 61 245 269 288 302 308 314 311 307 313 321 325 325 325 46 55 46 20 7 35 52 34 8 340 23 53 53 38 24 23 26 28 24 23 28 33 24 22 18
186 210 225 126 166 216 228 268 278 284 296 305 311 314 320 326 330 332 305 336 49 34 349 345 1 35 15 335 335 84 62 54 47 37 34 34 41 36 29 27 29 20 19 15
116 153 185 204 227 243 248 256 269 276 286 296 301 311 321 327 333 338 326 311 351 42 339 330 326 319 326 347 45 105 87 79 64 57 45 38 37 34 37 25 20 17 14 3
186 200 219 266 274 269 274 279 283 287 286 292 301 313 319 325 331 336 332 309 286 237 277 309 300 276 303 34 79 107 126 173 243 334 59 44 44 34 27 29 18 8 356 345
201 201 186 253 271 270 279 295 301 308 315 319 319 322 328 330 330 337 335 322 296 273 267 270 246 246 256 210 120 133 158 219 259 293 306 295 294 17 33 22 16 16 8 357
172 183 190 234 270 270 276 300 318 323 323 327 330 332 334 331 329 333 333 327 299 274 264 257 238 232 235 228 162 145 165 188 222 271 304 302 273 264 291 335 342 5 12 12
169 159 179 216 245 278 291 316 337 342 333 328 328 331 334 332 331 334 327 315 302 282 265 253 242 237 227 210 178 154 160 177 183 228 302 316 320 354 115 154 360 341 338 345
182 175 184 191 153 352 325 333 350 343 335 333 333 339 340 339 334 328 323 320 318 305 276 256 246 245 215 184 165 157 159 174 180 315 11 106 113 86 64 60 52 8 348 343
183 171 154 131 88 8 344 345 341 331 328 326 331 336 335 329 322 321 326 331 332 319 297 269 253 245 194 171 160 158 169 178 163 118 78 105 113 96 80 71 62 43 21 356
155 162 155 153 167 290 305 307 308 310 314 319 321 326 332 335 338 341 340 334 324 310 300 282 267 249 182 168 161 164 167 169 155 109 103 122 131 124 118 104 88 61 21 5
166 167 168 170 186 225 280 303 306 308 306 305 315 329 338 341 338 333 330 329 329 329 324 314 294 233 174 165 158 159 158 156 153 144 126 117 125 131 137 130 115 87 38 34
156 159 167 178 192 202 230 267 288 297 303 311 322 326 325 325 323 323 326 334 341 339 328 324 314 190 168 166 151 148 154 154 153 146 131 122 114 114 126 132 125 109 88 70
158 160 165 183 202 204 232 266 287 299 308 313 321 327 329 327 326 328 330 330 321 309 311 322 329 168 168 163 148 144 152 155 153 148 134 126 128 126 125 130 131 124 112 102
162 166 174 193 216 226 239 265 282 294 304 310 315 317 315 315 320 327 333 329 322 326 331 340 353 201 175 157 143 139 143 147 150 150 146 142 138 134 132 133 135 135 131 125
166 172 186 198 207 223 246 256 272 286 299 306 311 316 321 320 322 326 318 291 303 320 327 321 319 249 187 157 140 141 141 142 147 149 149 149 148 148 147 147 145 145 143 140
169 175 189 201 203 211 231 255 267 267 279 290 298 307 310 303 304 317 321 312 314 316 318 299 302 266 176 154 150 148 147 147 152 157 159 161 161 160 158 157 157 153 148 141
173 180 193 198 190 189 218 243 249 256 267 277 283 292 298 303 307 296 286 302 312 315 309 299 307 222 164 155 156 156 156 157 159 161 158 155 155 155 155 156 156 156 153 146
179 184 188 185 190 206 218 225 238 263 278 283 291 296 292 275 278 297 304 308 316 321 315 310 309 195 161 158 168 170 170 170 167 162 161 159 159 159 159 160 161 158 153 148
180 187 194 198 199 202 201 200 213 240 249 267 283 288 293 296 297 301 304 311 319 324 322 306 292 200 177 173 179 181 177 172 167 165 168 167 167 164 163 167 165 163 159 152
186 189 195 210 217 205 198 199 210 226 225 231 260 277 289 301 307 311 314 317 324 325 322 306 271 234 209 193 186 182 176 169 168 168 169 170 171 172 172 170 168 165 159 156
Height
1531 1531 1531 1533 1529 1523 1521 1522 1525 1529 1528 1527 1522 1517 1510 1503 1495 1489 1485 1482 1480 1480 1480 1480 1480 1480 1481 1483 1485 1487 1488 1490 1491 1492 1493 1494 1493 1494 1495 1495 1495 1495 1495 1495
1534 1533 1532 1536 1537 1533 1530 1530 1531 1530 1531 1529 1524 1517 1510 1505 1500 1495 1491 1487 1485 1483 1482 1482 1482 1482 1482 1483 1483 1484 1486 1487 1488 1488 1489 1490 1490 1490 1491 1491 1492 1492 1493 1493
1541 1534 1533 1545 1547 1544 1541 1540 1538 1537 1538 1530 1523 1517 1513 1510 1505 1501 1498 1494 1490 1488 1486 1486 1485 1485 1484 1484 1484 1484 1485 1485 1485 1486 1486 1486 1486 1486 1487 1487 1488 1488 1489 1489
1543 1542 1552 1557 1548 1547 1544 1543 1542 1540 1537 1532 1527 1520 1515 1513 1509 1505 1502 1499 1496 1494 1492 1491 1490 1488 1487 1487 1487 1486 1485 1485 1484 1484 1483 1482 1482 1483 1483 1483 1483 1484 1484 1485
1548 1551 1554 1552 1547 1546 1545 1543 1544 1540 1536 1532 1526 1518 1514 1512 1510 1508 1506 1504 1501 1499 1497 1495 1493 1492 1490 1489 1488 1487 1485 1484 1483 1482 1481 1480 1480 1479 1479 1479 1479 1479 1480 1480
1550 1551 1556 1554 1546 1543 1545 1544 1543 1540 1537 1533 1528 1524 1520 1513 1511 1509 1508 1506 1504 1503 1501 1498 1497 1495 1493 1491 1490 1488 1487 1485 1484 1482 1480 1478 1477 1477 1476 1475 1475 1475 1475 1476
1556 1555 1553 1550 1546 1544 1550 1551 1544 1541 1538 1534 1532 1531 1524 1516 1513 1512 1510 1509 1507 1505 1503 1501 1500 1498 1496 1494 1493 1492 1490 1488 1486 1483 1481 1479 1478 1477 1476 1475 1474 1474 1473 1473
1559 1561 1561 1549 1547 1550 1550 1545 1543 1540 1537 1534 1531 1526 1521 1517 1514 1512 1511 1510 1509 1507 1506 1504 1503 1501 1499 1497 1496 1494 1493 1490 1488 1485 1483 1481 1480 1479 1478 1477 1476 1475 1474 1473
1556 1558 1551 1549 1548 1547 1545 1543 1541 1538 1536 1533 1529 1525 1521 1517 1515 1513 1512 1511 1510 1509 1508 1507 1506 1504 1502 1500 1498 1496 1495 1492 1490 1487 1485 1484 1483 1482 1481 1480 1478 1476 1475 1474
1550 1550 1549 1548 1547 1546 1544 1542 1540 1537 1534 1532 1529 1525 1521 1518 1515 1514 1513 1512 1512 1511 1510 1509 1507 1506 1504 1501 1499 1498 1496 1494 1492 1490 1488 1486 1485 1484 1483 1481 1480 1478 1476 1474
1548 1547 1547 1547 1546 1544 1542 1540 1538 1536 1533 1531 1528 1525 1521 1519 1516 1515 1514 1513 1512 1512 1511 1510 1508 1507 1505 1503 1501 1499 1497 1496 1494 1492 1490 1489 1487 1486 1484 1482 1480 1479 1476 1474
1545 1543 1544 1545 1544 1542 1541 1539 1537 1535 1532 1530 1527 1525 1522 1519 1517 1516 1514 1513 1513 1512 1511 1510 1508 1507 1506 1504 1501 1499 1498 1496 1495 1493 1491 1490 1488 1487 1485 1483 1481 1479 1477 1475
1536 1539 1541 1542 1542 1541 1540 1538 1536 1534 1532 1529 1527 1524 1522 1519 1517 1516 1514 1513 1512 1511 1510 1509 1508 1507 1505 1503 1501 1499 1498 1497 1495 1493 1492 1491 1489 1487 1486 1484 1482 1480 1478 1476
1534 1536 1538 1539 1540 1539 1538 1537 1535 1533 1531 1529 1526 1524 1521 1519 1517 1515 1513 1512 1510 1509 1508 1507 1506 1505 1504 1503 1501 1499 1498 1497 1495 1494 1493 1492 1490 1488 1486 1485 1483 1482 1480 1478
1531 1533 1535 1537 1537 1537 1537 1536 1534 1532 1529 1527 1525 1523 1520 1517 1516 1514 1512 1511 1509 1507 1505 1504 1504 1503 1502 1501 1500 1499 1497 1496 1495 1494 1494 1492 1491 1490 1488 1486 1485 1483 1482 1480
1529 1531 1533 1534 1535 1535 1535 1534 1532 1530 1528 1526 1524 1521 1519 1517 1515 1513 1511 1510 1507 1505 1503 1502 1501 1501 1500 1499 1499 1498 1497 1496 1495 1495 1494 1493 1492 1491 1490 1488 1486 1485 1484 1482
1526 1528 1530 1531 1532 1533 1533 1532 1531 1529 1527 1525 1523 1520 1518 1515 1513 1511 1510 1508 1507 1505 1502 1500 1499 1499 1498 1498 1497 1496 1496 1496 1496 1495 1495 1494 1493 1492 1491 1490 1488 1487 1486 1485
1522 1525 1527 1529 1530 1530 1530 1530 1529 1528 1526 1524 1522 1519 1516 1514 1511 1509 1508 1507 1505 1503 1501 1499 1497 1497 1496 1496 1496 1495 1495 1495 1495 1495 1495 1495 1494 1494 1493 1492 1491 1489 1489 1488
1520 1523 1525 1526 1527 1528 1528 1527 1527 1526 1524 1522 1520 1518 1515 1513 1510 1508 1507 1505 1503 1501 1500 1498 1496 1495 1495 1495 1495 1494 1494 1494 1495 1495 1495 1495 1494 1494 1494 1493 1492 1491 1491 1490
1517 1520 1522 1523 1525 1525 1525 1525 1524 1523 1522 1520 1519 1516 1514 1511 1509 1506 1505 1503 1502 1500 1498 1497 1495 1494 1494 1494 1494 1493 1493 1493 1494 1494 1494 1494 1494 1494 1494 1494 1494 1493 1492 1491
1513 1516 1518 1520 1522 1523 1523 1522 1522 1521 1520 1518 1516 1514 1512 1510 1507 1504 1502 1501 1500 1498 1497 1495 1494 1493 1493 1493 1493 1493 1493 1493 1493 1493 1494 1494 1494 1494 1495 1495 1494 1494 1493 1492
1510 1513 1515 1517 1518 1519 1520 1520 1519 1518 1517 1516 1514 1512 1510 1507 1505 1502 1501 1499 1497 1496 1495 1493 1493 1492 1492 1492 1492 1492 1492 1492 1492 1492 1493 1494 1494 1494 1495 1495 1494 1494 1493 1493
1506 1509 1511 1513 1515 1516 1516 1517 1516 1515 1514 1513 1511 1509 1507 1505 1503 1500 1498 1496 1494 1493 1492 1491 1490 1490 1491 1491 1491 1491 1492 1492 1492 1492 1492 1493 1494 1494 1495 1495 1494 1494 1493 1493
1502 1505 1507 1510 1511 1512 1513 1513 1513 1512 1511 1510 1509 1507 1505 1502 1500 1499 1496 1494 1492 1490 1489 1489 1488 1488 1489 1489 1490 1491 1491 1491 1491 1491 1492 1493 1493 1494 1494 1494 1494 1493 1493 1493
1498 1501 1504 1506 1507 1508 1509 1509 1509 1508 1508 1507 1506 1504 1502 1500 1498 1496 1494 1491 1489 1488 1487 1486 1485 1485 1486 1487 1488 1489 1490 1490 1490 1490 1491 1492 1492 1493 1493 1494 1493 1493 1493 1492
1495 1497 1500 1502 1503 1504 1505 1505 1505 1505 1504 1503 1503 1501 1500 1498 1496 1494 1491 1489 1487 1485 1484 1484 1483 1483 1483 1484 1485 1487 1488 1489 1489 1489 1489 1490 1491 1491 1492 1492 1493 1492 1492 1492
1491 1494 1496 1497 1499 1500 1501 1501 1501 1500 1500 1500 1499 1498 1497 1495 1493 1491 1489 1486 1484 1483 1482 1481 1481 1481 1481 1481 1482 1484 1486 1487 1488 1488 1487 1488 1489 1490 1490 1491 1491 1491 1491 1491